Location: Unspecified
(0.0000°N, 0.0000°E)
Time: 07:57:40
(UTC+00:00)

Vanguard 1 Rocket - Visible Passes

Search period start: 28 June 2016 00:00
Search period end: 08 July 2016 00:00
Orbit: 651 x 4226 km, 34.3° (Epoch: 26 June)

Date Brightness Start Highest point End Pass type
(mag) Time Alt. Az. Time Alt. Az. Time Alt. Az.
28 Jun 10.0 04:52:31 10° SSW 05:01:36 37° SE 05:17:46 10° ENE visible
28 Jun 8.9 20:15:10 10° W 20:22:39 28° SW 20:23:37 27° SSW visible
29 Jun 10.1 03:45:10 13° S 03:49:45 18° SE 03:58:12 10° E visible
29 Jun 8.5 18:59:44 10° WNW 19:11:49 63° SW 19:16:40 20° SE visible
30 Jun 9.8 04:55:28 11° SSW 05:04:19 48° SE 05:21:33 10° ENE visible
30 Jun 9.4 20:19:37 10° W 20:25:32 19° SW 20:27:00 18° SSW visible
01 Jul 9.8 03:48:29 18° S 03:52:41 25° SE 04:03:18 10° E visible
01 Jul 9.1 19:03:05 10° WNW 19:14:41 45° SW 19:20:03 16° SSE visible
02 Jul 9.5 04:58:49 14° SW 05:07:02 62° SE 05:24:53 10° ENE visible
02 Jul 9.8 20:25:09 10° WSW 20:28:31 13° SW 20:30:23 11° SSW visible
03 Jul 9.4 03:51:51 25° S 03:55:29 34° SE 04:07:39 10° ENE visible
03 Jul 9.5 19:06:53 10° WNW 19:17:29 32° SW 19:23:25 11° SSE visible
04 Jul 10.2 02:44:53 14° SE 02:44:53 14° SE 02:49:00 10° ESE visible
04 Jul 9.1 05:02:11 16° SW 05:09:53 80° SE 05:27:50 10° NE visible
05 Jul 8.9 03:55:13 34° S 03:58:15 45° SE 04:11:27 10° ENE visible
05 Jul 9.8 19:11:15 10° W 19:20:18 23° SW 19:26:08 10° S visible
06 Jul 9.9 02:48:15 20° SE 02:48:15 20° SE 02:54:20 10° E visible
06 Jul 9.0 05:05:34 17° WSW 05:12:55 80° NW 05:30:30 10° NE visible
07 Jul 8.5 03:58:36 46° SSW 04:01:04 62° SE 04:14:47 10° ENE visible
07 Jul 10.0 19:16:23 10° W 19:23:14 17° SW 19:28:10 10° S visible
